User: anonymous   Login
Location: Unspecified
(0.0000°N, 0.0000°E)
Time: 06:10:28
(UTC+00:00)
Language:

DELFI-N3XT - Orbit

View from above orbital plane
View from above orbital plane
View from above satellite
View from above satellite

Ground track
Ground track

The orbit data is extracted from the following two-line orbital elements,

1 39420U 13066E   17296.41775664 +.00000379 +00000-0 +74984-4 0  9994
2 39420 097.6597 291.9061 0137489 337.0363 022.4729 14.61929901209108
Epoch (UTC): 23 October 2017 10:01:34
Eccentricity: 0.0137489
inclination: 97.6597°
perigee height: 590 km
apogee height: 784 km
right ascension of ascending node: 291.9061°
argument of perigee: 337.0363°
revolutions per day: 14.61929901
mean anomaly at epoch: 22.4729°
orbit number at epoch: 20910

The dashed part of the orbit path shows where the satellite is in the earth's shadow,  

DLR